Chehalis, WA
on Monday, November 26, 2012

Monday
Previous Day Next Day
Daily Summary
 ActualAverage (KOLM)Record (KOLM)
Temperature
Mean Temperature °F 41°F  
Max Temperature 46°F 47°F 59°F (1950)
Min Temperature 32°F 35°F 14°F (1993)
Degree Days
Heating Degree Days 26 24  
Month to date heating degree days 552  
Since 1 July heating degree days 1346  
Cooling Degree Days 0 0  
Month to date cooling degree days 0  
Year to date cooling degree days 106  
Moisture
Dew Point 35°F   
Average Humidity 89    
Maximum Humidity 100    
Minimum Humidity 66    
Precipitation
Precipitation 0.00 in 0.30 in 2.50 in (1949)
Month to date precipitation 7.43  
Year to date precipitation 41.34  
Wind
Wind Speed 6 mph   
Max Wind Speed 14 mph   
Max Gust Speed 16 mph   
Visibility 8 miles   
Events Fog   

Key: T is trace of precipitation, MM is missing value
Source: NWS Daily Summary
Time(PST)TemperatureDew PointHumidity Pressure Visibility Wind DirectionWind SpeedGust SpeedPrecipitationEvents Conditions
12:15 AM 37.4°F 37.4°F 100% 30.20 in 9.0 miles North 8.1 mph - N/A   Overcast
12:35 AM 39.2°F 37.4°F 93% 30.21 in 10.0 miles North 9.2 mph - N/A   Overcast
12:55 AM 39.2°F 37.4°F 93% 30.20 in 10.0 miles NNE 12.7 mph - N/A   Overcast
1:15 AM 39.2°F 37.4°F 93% 30.20 in 10.0 miles NNE 11.5 mph - N/A   Overcast
1:35 AM 37.4°F 35.6°F 93% 30.19 in 9.0 miles North 10.4 mph - N/A   Mostly Cloudy
1:55 AM 37.4°F 35.6°F 93% 30.18 in 10.0 miles NNE 9.2 mph - N/A   Scattered Clouds
2:15 AM 37.4°F 35.6°F 93% 30.17 in 10.0 miles NNE 9.2 mph - N/A   Scattered Clouds
2:35 AM 37.4°F 35.6°F 93% 30.16 in 10.0 miles NNE 9.2 mph - N/A   Clear
2:55 AM 37.4°F 35.6°F 93% 30.15 in 10.0 miles North 8.1 mph - N/A   Scattered Clouds
3:15 AM 37.4°F 35.6°F 93% 30.15 in 10.0 miles North 6.9 mph - N/A   Mostly Cloudy
3:35 AM 37.4°F 35.6°F 93% 30.15 in 10.0 miles North 6.9 mph - N/A   Partly Cloudy
3:55 AM 37.4°F 35.6°F 93% 30.15 in 10.0 miles North 8.1 mph - N/A   Partly Cloudy
4:15 AM 37.4°F 35.6°F 93% 30.15 in 10.0 miles North 11.5 mph - N/A   Partly Cloudy
4:35 AM 37.4°F 35.6°F 93% 30.14 in 10.0 miles NNE 10.4 mph 16.1 mph N/A   Clear
4:55 AM 37.4°F 35.6°F 93% 30.14 in 10.0 miles NNE 8.1 mph - N/A   Partly Cloudy
5:15 AM 37.4°F 35.6°F 93% 30.15 in 10.0 miles North 11.5 mph - N/A   Mostly Cloudy
5:35 AM 37.4°F 35.6°F 93% 30.15 in 10.0 miles NNE 13.8 mph - N/A   Mostly Cloudy
5:55 AM 37.4°F 35.6°F 93% 30.15 in 10.0 miles NNE 9.2 mph - N/A   Mostly Cloudy
6:15 AM 37.4°F 35.6°F 93% 30.14 in 10.0 miles NNE 10.4 mph - N/A   Scattered Clouds
7:15 AM 35.6°F 33.8°F 93% 30.13 in 10.0 miles NNE 6.9 mph - N/A   Clear
7:35 AM 33.8°F 32.0°F 93% 30.13 in 10.0 miles NNE 4.6 mph - N/A   Clear
7:55 AM 33.8°F 32.0°F 93% 30.13 in 9.0 miles NNE 4.6 mph - N/A   Clear
8:15 AM 33.8°F 32.0°F 93% 30.13 in 7.0 miles ENE 3.5 mph - N/A   Clear
8:35 AM 32.0°F 32.0°F 100% 30.13 in 8.0 miles NE 4.6 mph - N/A   Clear
8:55 AM 33.8°F 32.0°F 93% 30.13 in 9.0 miles NE 3.5 mph - N/A   Clear
9:15 AM 35.6°F 33.8°F 93% 30.13 in 7.0 miles Calm Calm - N/A   Clear
9:35 AM 37.4°F 35.6°F 93% 30.13 in 9.0 miles ENE 3.5 mph - N/A   Clear
9:55 AM 39.2°F 35.6°F 87% 30.13 in 5.0 miles Calm Calm - N/A   Clear
10:15 AM 39.2°F 35.6°F 87% 30.12 in 6.0 miles NE 4.6 mph - N/A   Clear
10:35 AM 41.0°F 35.6°F 81% 30.12 in 9.0 miles NE 3.5 mph - N/A   Clear
10:55 AM 41.0°F 35.6°F 81% 30.12 in 8.0 miles South 5.8 mph - N/A   Clear
11:15 AM 41.0°F 35.6°F 81% 30.11 in 9.0 miles SSW 3.5 mph - N/A   Clear
11:35 AM 41.0°F 35.6°F 81% 30.11 in 5.0 miles Calm Calm - N/A   Haze
12:15 PM 44.6°F 35.6°F 71% 30.09 in 8.0 miles NNE 4.6 mph - N/A   Clear
12:35 PM 46.4°F 35.6°F 66% 30.08 in 10.0 miles North 4.6 mph - N/A   Clear
12:55 PM 46.4°F 35.6°F 66% 30.08 in 8.0 miles NNW 3.5 mph - N/A   Clear
1:15 PM 46.4°F 37.4°F 71% 30.07 in 10.0 miles North 4.6 mph - N/A   Clear
1:35 PM 46.4°F 37.4°F 71% 30.07 in 10.0 miles North 5.8 mph - N/A   Clear
1:55 PM 46.4°F 37.4°F 71% 30.07 in 10.0 miles North 4.6 mph - N/A   Clear
2:15 PM 46.4°F 39.2°F 76% 30.06 in 10.0 miles North 5.8 mph - N/A   Clear
2:35 PM 46.4°F 37.4°F 71% 30.06 in 10.0 miles North 3.5 mph - N/A   Clear
2:55 PM 46.4°F 37.4°F 71% 30.05 in 10.0 miles North 4.6 mph - N/A   Clear
3:15 PM 46.4°F 37.4°F 71% 30.05 in 10.0 miles NNW 4.6 mph - N/A   Clear
3:35 PM 44.6°F 37.4°F 76% 30.05 in 10.0 miles NNW 3.5 mph - N/A   Clear
3:55 PM 44.6°F 37.4°F 76% 30.05 in 10.0 miles North 3.5 mph - N/A   Clear
4:15 PM 42.8°F 37.4°F 81% 30.05 in 10.0 miles North 3.5 mph - N/A   Clear
4:35 PM 41.0°F 37.4°F 87% 30.05 in 10.0 miles North 3.5 mph - N/A   Clear
4:55 PM 39.2°F 37.4°F 93% 30.04 in 10.0 miles North 3.5 mph - N/A   Clear
5:15 PM 39.2°F 37.4°F 93% 30.05 in 10.0 miles North 3.5 mph - N/A   Clear
5:35 PM 39.2°F 35.6°F 87% 30.05 in 9.0 miles NNE 5.8 mph - N/A   Clear
5:55 PM 39.2°F 35.6°F 87% 30.05 in 10.0 miles NNE 4.6 mph - N/A   Clear
6:15 PM 39.2°F 35.6°F 87% 30.05 in 10.0 miles Calm Calm - N/A   Clear
6:35 PM 37.4°F 35.6°F 93% 30.05 in 8.0 miles Calm Calm - N/A   Clear
6:55 PM 37.4°F 35.6°F 93% 30.05 in 5.0 miles Calm Calm - N/A   Clear
7:15 PM 35.6°F 35.6°F 100% 30.06 in 5.0 miles Calm Calm - N/A   Clear
7:35 PM 35.6°F 33.8°F 93% 30.05 in 7.0 miles Calm Calm - N/A   Clear
7:55 PM 35.6°F 33.8°F 93% 30.06 in 5.0 miles Calm Calm - N/A   Clear
8:15 PM 33.8°F 33.8°F 100% 30.06 in 0.8 miles Calm Calm - N/A   Mist
8:35 PM 33.8°F 32.0°F 93% 30.07 in 10.0 miles Calm Calm - N/A   Clear
8:55 PM 33.8°F 32.0°F 93% 30.06 in 9.0 miles Calm Calm - N/A   Scattered Clouds
9:15 PM 33.8°F 32.0°F 93% 30.07 in 5.0 miles WSW 3.5 mph - N/A   Partly Cloudy
9:35 PM 32.0°F 32.0°F 100% 30.08 in 0.8 miles Calm Calm - N/A   Mostly Cloudy
9:55 PM 32.0°F 32.0°F 100% 30.08 in 0.8 miles Calm Calm - N/A   Overcast
10:15 PM 32.0°F 32.0°F 100% 30.09 in 0.5 miles Calm Calm - N/A Fog Fog
10:35 PM 32.0°F 32.0°F 100% 30.09 in 1.2 miles SSW 3.5 mph - N/A   Overcast
10:55 PM 32.0°F 32.0°F 100% 30.09 in 7.0 miles South 4.6 mph - N/A   Overcast
11:15 PM 32.0°F 32.0°F 100% 30.09 in 9.0 miles Calm Calm - N/A   Overcast
11:55 PM 32.0°F 32.0°F 100% 30.10 in 4.0 miles Calm Calm - N/A   Overcast
Moon Phase
Nov. 26 Nov. 28 Dec. 06 Dec. 13 Dec. 20
Sunrise:07:30 AM (PST) Moon Rise:03:26 PM (PST)11/26
Sunset:04:28 PM (PST) Moon Set:05:41 AM (PST)11/26

Copyright © 2014 The Weather Underground, Inc.